{"data":{"norad_id":48126,"intl_designator":"2021-027AL","name":"STARLINK-2467","alt_names":[],"object_type":"PAYLOAD","status":"ACTIVE","operator":null,"country":"US","launch_date":"2021-04-07","launch_site_code":"AFETR","launch_vehicle":null,"mission":null,"orbit_class":"UNKNOWN","rcs_meters":null,"size_class":null,"mass_kg":null,"dimensions":null,"purposes":["comms"],"wikipedia_slug":null,"has_3d_model":false,"image_url":null,"decayed_at":null,"tle_current":{"epoch":"2026-05-24T18:03:16.366464Z","epoch_age_seconds":107179,"freshness":"FRESH","line1":"1 48126U 21027AL  26144.75227276 -.00000554  00000+0 -60722-5 0  9995","line2":"2 48126  53.1579 158.6957 0002158  90.7782 269.3466 15.31700856284346","mean_motion":15.31700856,"eccentricity":0.0002158,"inclination_deg":53.1579,"raan_deg":158.6957,"arg_perigee_deg":90.7782,"mean_anomaly_deg":269.3466,"bstar":-6.0722e-6,"rev_number":28434,"period_min":94.013135421268,"perigee_km":469.25945643046,"apogee_km":472.21543064029,"semimajor_km":6848.8744435354,"source":"CELESTRAK","updated_at":"2026-05-25T13:38:16.647091Z"}}}